Location: Del Amo
(33.8464°N, 118.2104°W)
Time: 19:25:03
(UTC+00:00)

Vanguard 1 - Pass Details

Date: 14 September 2024
Orbit: 648 x 3825 km, 34.3° (Epoch: 13 October)

Event Time Altitude Azimuth Distance (km) Brightness Sun altitude
Rises 02:16:45 0° 279° (W) 3,213 16.0 -4.1°
Reaches altitude 10° 02:19:31 10° 267° (W) 2,124 13.6 -4.6°
Maximum altitude 02:23:29 29° 206° (SSW) 1,179 10.7 -5.4°
Drops below altitude 10° 02:27:27 10° 145° (SE) 2,130 11.4 -6.3°
Enters shadow 02:29:50 - 135° (SE) 3,063 12.1 -6.7°
